Location: Le Rocchette
(44.3500°N, 7.8333°E)
Time: 23:54:19
(UTC+00:00)

Cosmos 1356 Rocket - Pass Details

Date: 17 November 2019
Orbit: 543 x 598 km, 81.2° (Epoch: 15 December)

Event Time Altitude Azimuth Distance (km) Brightness Sun altitude
Exits shadow 04:19:38 36° 197° (SSW) 957 4.4 -22.6°
Drops below altitude 10° 04:22:15 10° 183° (S) 1,919 6.1 -22.1°
Sets 04:24:26 0° 180° (S) 2,810 7.0 -21.7°
